When you browse on this site, cookies collect data to enhance your experience and personalize the content and advertising you see.
Visit our Privacy Policy to learn more. By continuing to use the site, you agree to this use of cookies and data.
  • In Lithuania
  • List of Countries
  • For 7 days
  • Water Temperature
  • Weather Map
  • Weather Widgets
  • user-avatar
    Login

    Hourly Weather Biratnagar

    Today, 20 February, Thursday

    Time Temperature Precipitation Wind Pressure Humidity
    00:00 +21°C° 0 mm 1 mps 756 mmHg 53%
    01:00 +21°C° 0 mm 1 mps 755 mmHg 55%
    02:00 +20°C° 0 mm 1 mps 755 mmHg 56%
    03:00 +20°C° 0 mm 1 mps 755 mmHg 57%
    04:00 +20°C° 0 mm 1 mps 755 mmHg 58%
    05:00 +20°C° 0 mm 1 mps 755 mmHg 60%
    06:00 +19°C° 0 mm 1 mps 755 mmHg 68%
    07:00 +20°C° 0 mm 2 mps 756 mmHg 63%
    08:00 +21°C° 0 mm 2 mps 756 mmHg 58%
    09:00 +24°C° 0 mm 2 mps 757 mmHg 53%
    10:00 +26°C° 0 mm 2 mps 757 mmHg 47%
    11:00 +27°C° 0 mm 2 mps 756 mmHg 41%
    12:00 +29°C° 0 mm 2 mps 757 mmHg 36%
    13:00 +29°C° 0 mm 2 mps 756 mmHg 32%
    14:00 +29°C° 0 mm 2 mps 755 mmHg 29%
    15:00 +30°C° 0 mm 2 mps 754 mmHg 26%
    16:00 +28°C° 0 mm 1 mps 755 mmHg 28%
    17:00 +27°C° 0 mm 1 mps 755 mmHg 31%
    18:00 +25°C° 0 mm 1 mps 755 mmHg 33%
    19:00 +25°C° 0 mm 1 mps 756 mmHg 34%
    20:00 +24°C° 0 mm 1 mps 756 mmHg 35%
    21:00 +23°C° 0 mm 2 mps 756 mmHg 36%
    22:00 +21°C° 0 mm 2 mps 756 mmHg 39%
    23:00 +21°C° 0 mm 2 mps 757 mmHg 41%

    Tomorrow, 21 February, Friday

    Time Temperature Precipitation Wind Pressure Humidity
    00:00 +20°C° 0 mm 2 mps 757 mmHg 43%
    01:00 +20°C° 0 mm 2 mps 756 mmHg 45%
    02:00 +19°C° 0 mm 2 mps 756 mmHg 48%
    03:00 +20°C° 0 mm 1 mps 756 mmHg 50%
    04:00 +18°C° 0 mm 2 mps 756 mmHg 52%
    05:00 +18°C° 0 mm 2 mps 756 mmHg 54%
    06:00 +18°C° 0 mm 2 mps 756 mmHg 56%
    07:00 +20°C° 0 mm 3 mps 757 mmHg 53%
    08:00 +22°C° 0 mm 3 mps 758 mmHg 50%
    09:00 +25°C° 0 mm 4 mps 759 mmHg 46%
    10:00 +26°C° 0 mm 4 mps 759 mmHg 41%
    11:00 +28°C° 0 mm 4 mps 758 mmHg 36%
    12:00 +30°C° 0 mm 4 mps 758 mmHg 30%
    19:00 +26°C° 0 mm 1 mps 757 mmHg 30%
    20:00 +26°C° 0 mm 1 mps 758 mmHg 30%
    21:00 +25°C° 0 mm 2 mps 758 mmHg 30%
    22:00 +25°C° 0 mm 2 mps 758 mmHg 32%
    23:00 +24°C° 0 mm 2 mps 758 mmHg 33%

    Day after tomorrow, 22 February, Saturday

    Time Temperature Precipitation Wind Pressure Humidity
    00:00 +24°C° 0 mm 2 mps 758 mmHg 35%
    01:00 +24°C° 0 mm 3 mps 758 mmHg 37%
    02:00 +24°C° 0 mm 3 mps 758 mmHg 39%
    03:00 +23°C° 0 mm 4 mps 758 mmHg 40%
    04:00 +24°C° 0 mm 3 mps 758 mmHg 43%
    05:00 +23°C° 0 mm 2 mps 757 mmHg 46%
    06:00 +23°C° 0 mm 2 mps 757 mmHg 48%
    07:00 +24°C° 0 mm 2 mps 758 mmHg 46%
    08:00 +25°C° 0 mm 2 mps 758 mmHg 43%
    09:00 +27°C° 0 mm 2 mps 759 mmHg 41%
    10:00 +28°C° 0 mm 3 mps 758 mmHg 37%
    11:00 +30°C° 0 mm 3 mps 758 mmHg 34%
    12:00 +31°C° 0 mm 3 mps 758 mmHg 30%
    13:00 +33°C° 0 mm 3 mps 757 mmHg 29%
    14:00 +33°C° 0 mm 3 mps 756 mmHg 28%
    15:00 +32°C° 0 mm 2 mps 756 mmHg 27%
    16:00 +31°C° 0 mm 2 mps 756 mmHg 31%
    17:00 +29°C° 0 mm 2 mps 756 mmHg 35%
    18:00 +28°C° 0 mm 2 mps 756 mmHg 38%
    19:00 +26°C° 0 mm 2 mps 756 mmHg 42%
    20:00 +25°C° 0 mm 2 mps 757 mmHg 45%
    21:00 +24°C° 0 mm 2 mps 757 mmHg 49%
    22:00 +23°C° 0 mm 2 mps 757 mmHg 50%
    23:00 +23°C° 0 mm 2 mps 757 mmHg 51%

    23 February, Sunday

    Time Temperature Precipitation Wind Pressure Humidity
    00:00 +21°C° 0 mm 2 mps 757 mmHg 52%
    01:00 +21°C° 0 mm 2 mps 757 mmHg 53%
    02:00 +21°C° 0 mm 2 mps 756 mmHg 53%
    03:00 +21°C° 0 mm 2 mps 756 mmHg 53%
    04:00 +21°C° 0.1 mm 2 mps 756 mmHg 52%
    05:00 +21°C° 0.1 mm 2 mps 756 mmHg 52%
    06:00 +20°C° 0.1 mm 2 mps 755 mmHg 52%
    07:00 +23°C° 0.4 mm 2 mps 756 mmHg 49%
    08:00 +24°C° 0.4 mm 2 mps 757 mmHg 47%
    09:00 +25°C° 0.4 mm 2 mps 757 mmHg 45%
    10:00 +27°C° 0.3 mm 2 mps 757 mmHg 41%
    11:00 +29°C° 0.3 mm 1 mps 757 mmHg 38%
    12:00 +31°C° 0.3 mm 1 mps 757 mmHg 34%
    13:00 +31°C° 0 mm 2 mps 756 mmHg 32%
    14:00 +32°C° 0 mm 2 mps 755 mmHg 30%
    15:00 +34°C° 0 mm 3 mps 754 mmHg 28%
    16:00 +31°C° 0 mm 2 mps 754 mmHg 32%
    17:00 +30°C° 0 mm 2 mps 754 mmHg 35%
    18:00 +29°C° 0 mm 2 mps 753 mmHg 38%
    19:00 +27°C° 0 mm 2 mps 754 mmHg 41%
    20:00 +26°C° 0 mm 2 mps 754 mmHg 43%
    21:00 +25°C° 0 mm 2 mps 755 mmHg 45%
    22:00 +25°C° 0.1 mm 2 mps 755 mmHg 47%
    23:00 +24°C° 0.1 mm 2 mps 755 mmHg 50%

    24 February, Monday

    Time Temperature Precipitation Wind Pressure Humidity
    00:00 +23°C° 0.1 mm 2 mps 755 mmHg 52%
    01:00 +21°C° 0.6 mm 2 mps 754 mmHg 56%
    02:00 +22°C° 0.6 mm 1 mps 754 mmHg 60%
    03:00 +21°C° 0.6 mm 1 mps 754 mmHg 64%
    04:00 +21°C° 0.3 mm 1 mps 754 mmHg 65%
    05:00 +20°C° 0.3 mm 1 mps 754 mmHg 65%
    06:00 +20°C° 0.3 mm 1 mps 753 mmHg 66%
    07:00 +21°C° 0 mm 2 mps 754 mmHg 59%
    08:00 +24°C° 0 mm 2 mps 755 mmHg 53%
    09:00 +25°C° 0 mm 2 mps 755 mmHg 46%
    10:00 +27°C° 0.1 mm 2 mps 755 mmHg 45%
    11:00 +28°C° 0.1 mm 2 mps 755 mmHg 43%
    12:00 +30°C° 0.1 mm 2 mps 755 mmHg 41%
    13:00 +30°C° 0 mm 2 mps 754 mmHg 39%
    14:00 +31°C° 0 mm 2 mps 753 mmHg 37%
    15:00 +31°C° 0 mm 2 mps 752 mmHg 35%
    16:00 +30°C° 0 mm 2 mps 752 mmHg 39%
    17:00 +29°C° 0 mm 1 mps 752 mmHg 42%
    18:00 +28°C° 0 mm 1 mps 752 mmHg 46%
    19:00 +26°C° 0.5 mm 1 mps 752 mmHg 51%
    20:00 +25°C° 0.5 mm 1 mps 753 mmHg 56%
    21:00 +24°C° 0.5 mm 1 mps 754 mmHg 61%
    22:00 +23°C° 0.1 mm 2 mps 754 mmHg 61%
    23:00 +23°C° 0.1 mm 2 mps 754 mmHg 62%

    25 February, Tuesday

    Time Temperature Precipitation Wind Pressure Humidity
    00:00 +21°C° 0.1 mm 3 mps 754 mmHg 62%
    01:00 +21°C° 0.4 mm 2 mps 753 mmHg 64%
    02:00 +21°C° 0.4 mm 2 mps 753 mmHg 66%
    03:00 +22°C° 0.4 mm 1 mps 753 mmHg 68%
    04:00 +20°C° 0.7 mm 2 mps 753 mmHg 71%
    05:00 +20°C° 0.7 mm 2 mps 753 mmHg 74%
    06:00 +20°C° 0.7 mm 2 mps 753 mmHg 77%
    07:00 +20°C° 0.1 mm 2 mps 753 mmHg 73%
    08:00 +21°C° 0.1 mm 2 mps 754 mmHg 69%
    09:00 +23°C° 0.1 mm 2 mps 755 mmHg 65%
    10:00 +23°C° 0.1 mm 2 mps 755 mmHg 67%
    11:00 +22°C° 0.1 mm 3 mps 754 mmHg 69%
    12:00 +22°C° 0.1 mm 3 mps 754 mmHg 71%
    13:00 +21°C° 0.3 mm 3 mps 754 mmHg 72%
    14:00 +21°C° 0.3 mm 3 mps 753 mmHg 72%
    15:00 +20°C° 0.3 mm 3 mps 753 mmHg 73%
    16:00 +20°C° 0.8 mm 3 mps 753 mmHg 77%
    17:00 +19°C° 0.8 mm 4 mps 753 mmHg 81%
    18:00 +19°C° 0.8 mm 4 mps 753 mmHg 85%
    19:00 +18°C° 1.5 mm 4 mps 753 mmHg 85%
    20:00 +17°C° 1.5 mm 5 mps 754 mmHg 86%
    21:00 +17°C° 1.5 mm 5 mps 754 mmHg 86%
    22:00 +18°C° 0.2 mm 4 mps 754 mmHg 85%
    23:00 +18°C° 0.2 mm 3 mps 754 mmHg 83%
    Show more